QPF
0.05 0.05 0.05 0.05 0.05 0.05 0.05 0.05 0.06 0.08 0.09 0.08 0.07 0.05 0.05 0.06 0.06 0.06 0.07 0.07 0.06 0.06 0.05 0.04 0.04 0.03 0.03 0.03 0.03 0.03 0.04 0.04 0.03 0.02 0.01 0.02 0.02 0.02 0.03 0.02 0.02 0.02 0.02
0.04 0.04 0.04 0.04 0.04 0.04 0.04 0.04 0.05 0.07 0.09 0.10 0.10 0.09 0.06 0.06 0.06 0.06 0.05 0.05 0.04 0.04 0.03 0.03 0.04 0.03 0.04 0.04 0.03 0.04 0.04 0.05 0.04 0.03 0.02 0.03 0.03 0.03 0.03 0.03 0.02 0.02 0.02
0.01 0.01 0.02 0.02 0.02 0.02 0.02 0.02 0.02 0.03 0.04 0.06 0.08 0.09 0.08 0.06 0.04 0.05 0.05 0.04 0.03 0.02 0.02 0.01 0.01 0.01 0.02 0.02 0.03 0.03 0.04 0.04 0.05 0.05 0.04 0.03 0.04 0.03 0.03 0.03 0.03 0.03 0.02
0.01 0.01 0.01 0.01 0.01 0.01 0.01 0.01 0.02 0.03 0.03 0.03 0.04 0.06 0.07 0.06 0.05 0.04 0.03 0.03 0.02 0.02 0.02 0.01 0.01 0.01 0.01 0.02 0.01 0.02 0.02 0.03 0.04 0.05 0.04 0.04 0.04 0.04 0.04 0.04 0.04 0.04 0.03
0.01 0.01 0.01 0.01 0.01 0.01 0.01 0.01 0.02 0.03 0.03 0.03 0.03 0.03 0.04 0.05 0.05 0.04 0.04 0.02 0.02 0.01 0.01 0.01 0.01 0.01 0.02 0.02 0.02 0.02 0.03 0.03 0.04 0.05 0.04 0.04 0.04 0.04 0.04 0.03 0.03 0.03 0.04
0.01 0.01 0.01 0.01 0.01 0.01 0.01 0.02 0.02 0.03 0.04 0.04 0.04 0.04 0.04 0.04 0.05 0.05 0.04 0.03 0.02 0.01 0.01 0.01 0.01 0.01 0.02 0.02 0.02 0.03 0.02 0.03 0.03 0.03 0.04 0.03 0.03 0.03 0.03 0.02 0.02 0.03 0.04
0.01 0.01 0.01 0.01 0.01 0.00 0.01 0.02 0.02 0.03 0.04 0.04 0.04 0.03 0.03 0.03 0.05 0.04 0.04 0.02 0.02 0.01 0.01 0.01 0.01 0.01 0.01 0.01 0.01 0.03 0.02 0.02 0.03 0.03 0.03 0.03 0.02 0.02 0.02 0.02 0.02 0.03 0.03
0.02 0.01 0.01 0.01 0.01 0.01 0.01 0.01 0.03 0.04 0.04 0.03 0.03 0.03 0.03 0.03 0.03 0.04 0.04 0.03 0.02 0.02 0.01 0.01 0.01 0.01 0.01 0.01 0.01 0.02 0.02 0.02 0.03 0.03 0.04 0.03 0.02 0.02 0.02 0.03 0.03 0.04 0.04
0.02 0.02 0.01 0.01 0.01 0.01 0.02 0.02 0.02 0.04 0.05 0.04 0.03 0.03 0.04 0.04 0.03 0.03 0.04 0.03 0.03 0.02 0.02 0.01 0.01 0.01 0.01 0.02 0.02 0.02 0.02 0.02 0.03 0.04 0.05 0.05 0.05 0.04 0.04 0.04 0.04 0.05 0.06
0.03 0.02 0.01 0.01 0.01 0.01 0.02 0.02 0.02 0.03 0.04 0.05 0.04 0.03 0.03 0.04 0.04 0.04 0.04 0.04 0.03 0.03 0.02 0.02 0.02 0.02 0.02 0.03 0.02 0.02 0.02 0.03 0.03 0.03 0.04 0.05 0.05 0.05 0.05 0.03 0.03 0.04 0.05
0.03 0.03 0.02 0.01 0.01 0.01 0.02 0.02 0.02 0.03 0.04 0.05 0.05 0.05 0.03 0.03 0.04 0.04 0.04 0.04 0.03 0.03 0.03 0.03 0.02 0.03 0.03 0.03 0.03 0.03 0.04 0.04 0.04 0.04 0.04 0.04 0.04 0.05 0.05 0.04 0.03 0.04 0.04
0.03 0.03 0.02 0.02 0.01 0.01 0.02 0.03 0.02 0.03 0.04 0.05 0.05 0.05 0.05 0.04 0.04 0.05 0.04 0.04 0.03 0.03 0.02 0.03 0.03 0.05 0.04 0.04 0.04 0.04 0.05 0.05 0.04 0.04 0.04 0.05 0.04 0.04 0.04 0.03 0.03 0.03 0.04
0.04 0.03 0.03 0.03 0.02 0.02 0.03 0.04 0.03 0.03 0.04 0.05 0.05 0.05 0.05 0.05 0.05 0.05 0.05 0.04 0.03 0.02 0.02 0.03 0.04 0.05 0.05 0.05 0.05 0.05 0.05 0.04 0.04 0.05 0.04 0.04 0.04 0.03 0.03 0.03 0.03 0.03 0.04
0.06 0.04 0.03 0.04 0.04 0.04 0.04 0.05 0.04 0.04 0.04 0.05 0.06 0.05 0.04 0.05 0.05 0.06 0.06 0.06 0.05 0.05 0.04 0.05 0.05 0.05 0.05 0.06 0.06 0.05 0.04 0.05 0.06 0.06 0.06 0.05 0.05 0.04 0.04 0.04 0.04 0.04 0.05
0.05 0.04 0.04 0.04 0.04 0.05 0.05 0.05 0.05 0.05 0.05 0.06 0.06 0.06 0.06 0.05 0.05 0.06 0.06 0.06 0.06 0.05 0.05 0.05 0.05 0.05 0.05 0.05 0.05 0.04 0.04 0.05 0.06 0.06 0.05 0.05 0.05 0.05 0.05 0.05 0.05 0.05 0.05
0.05 0.04 0.04 0.04 0.04 0.04 0.04 0.05 0.06 0.07 0.07 0.07 0.07 0.07 0.07 0.07 0.07 0.07 0.07 0.07 0.07 0.06 0.06 0.05 0.04 0.04 0.05 0.04 0.04 0.04 0.04 0.05 0.05 0.05 0.05 0.05 0.05 0.05 0.05 0.05 0.06 0.06 0.06
0.04 0.04 0.04 0.05 0.05 0.04 0.04 0.04 0.05 0.06 0.07 0.08 0.09 0.09 0.09 0.09 0.09 0.08 0.09 0.09 0.08 0.08 0.06 0.05 0.05 0.05 0.05 0.05 0.05 0.05 0.05 0.04 0.04 0.05 0.05 0.05 0.05 0.05 0.05 0.05 0.05 0.05 0.05
0.04 0.04 0.05 0.05 0.05 0.05 0.05 0.05 0.05 0.05 0.05 0.06 0.08 0.09 0.10 0.10 0.10 0.10 0.09 0.09 0.09 0.08 0.07 0.06 0.06 0.05 0.05 0.05 0.05 0.05 0.04 0.04 0.04 0.04 0.04 0.04 0.05 0.05 0.05 0.05 0.05 0.05 0.04
0.03 0.04 0.04 0.05 0.05 0.05 0.05 0.05 0.05 0.06 0.06 0.05 0.06 0.07 0.08 0.08 0.09 0.09 0.08 0.07 0.07 0.07 0.07 0.07 0.06 0.05 0.04 0.04 0.04 0.04 0.04 0.04 0.04 0.04 0.04 0.04 0.04 0.05 0.05 0.05 0.05 0.05 0.05
0.03 0.03 0.03 0.03 0.04 0.04 0.04 0.04 0.04 0.05 0.05 0.06 0.06 0.06 0.06 0.06 0.06 0.07 0.07 0.06 0.07 0.06 0.06 0.06 0.05 0.04 0.04 0.04 0.03 0.03 0.03 0.03 0.04 0.04 0.04 0.05 0.05 0.05 0.05 0.05 0.05 0.05 0.05
0.02 0.02 0.02 0.02 0.02 0.02 0.03 0.03 0.03 0.03 0.04 0.04 0.05 0.05 0.05 0.05 0.06 0.06 0.06 0.06 0.06 0.06 0.06 0.05 0.05 0.04 0.03 0.04 0.03 0.03 0.03 0.03 0.04 0.04 0.04 0.05 0.05 0.05 0.05 0.05 0.05 0.05 0.05
0.02 0.02 0.01 0.01 0.01 0.01 0.02 0.02 0.02 0.02 0.02 0.03 0.03 0.04 0.04 0.04 0.05 0.05 0.05 0.05 0.05 0.06 0.06 0.06 0.05 0.04 0.03 0.03 0.04 0.04 0.04 0.04 0.04 0.04 0.04 0.05 0.05 0.05 0.05 0.05 0.05 0.04 0.04
0.02 0.02 0.02 0.01 0.01 0.01 0.02 0.02 0.02 0.02 0.02 0.02 0.03 0.03 0.03 0.03 0.03 0.04 0.04 0.04 0.04 0.04 0.05 0.05 0.04 0.03 0.03 0.04 0.04 0.04 0.04 0.04 0.04 0.04 0.05 0.05 0.05 0.05 0.05 0.05 0.05 0.05 0.05
0.03 0.03 0.02 0.02 0.02 0.02 0.02 0.02 0.02 0.02 0.02 0.03 0.03 0.02 0.02 0.03 0.03 0.03 0.03 0.03 0.04 0.04 0.03 0.03 0.03 0.03 0.03 0.04 0.04 0.04 0.04 0.04 0.04 0.04 0.04 0.04 0.04 0.04 0.04 0.04 0.04 0.04 0.04
0.02 0.02 0.02 0.02 0.02 0.02 0.02 0.02 0.02 0.02 0.02 0.02 0.02 0.02 0.02 0.02 0.02 0.02 0.03 0.03 0.03 0.03 0.03 0.03 0.03 0.03 0.03 0.03 0.03 0.03 0.04 0.04 0.04 0.04 0.04 0.04 0.04 0.04 0.04 0.04 0.04 0.04 0.04
0.01 0.01 0.01 0.01 0.02 0.02 0.02 0.02 0.02 0.02 0.02 0.02 0.02 0.02 0.02 0.02 0.02 0.02 0.02 0.03 0.03 0.03 0.03 0.03 0.03 0.03 0.03 0.03 0.03 0.03 0.04 0.04 0.04 0.04 0.04 0.04 0.04 0.04 0.04 0.04 0.03 0.03 0.03
MSLP
1012.60 1013.27 1014.00 1014.74 1015.48 1016.20 1016.91 1017.61 1018.33 1019.06 1019.82 1020.58 1021.32 1022.02 1022.66 1023.20 1023.65 1024.01 1024.31 1024.55 1024.78 1025.01 1025.25 1025.52 1025.79 1026.05 1026.27 1026.42 1026.48 1026.44 1026.29 1026.04 1025.71 1025.30 1024.83 1024.32 1023.79 1023.23 1022.65 1022.04 1021.41 1020.74 1020.02
1011.77 1012.51 1013.30 1014.11 1014.91 1015.69 1016.44 1017.19 1017.94 1018.70 1019.46 1020.23 1020.98 1021.69 1022.33 1022.89 1023.35 1023.73 1024.04 1024.29 1024.52 1024.75 1024.99 1025.24 1025.49 1025.73 1025.93 1026.06 1026.11 1026.05 1025.89 1025.63 1025.27 1024.84 1024.35 1023.81 1023.25 1022.68 1022.08 1021.46 1020.82 1020.13 1019.40
1011.04 1011.86 1012.72 1013.61 1014.48 1015.32 1016.12 1016.89 1017.66 1018.42 1019.18 1019.93 1020.66 1021.35 1021.97 1022.52 1022.98 1023.36 1023.67 1023.94 1024.17 1024.40 1024.64 1024.87 1025.11 1025.32 1025.49 1025.59 1025.61 1025.53 1025.35 1025.07 1024.70 1024.26 1023.76 1023.22 1022.66 1022.08 1021.49 1020.87 1020.21 1019.51 1018.75
1010.44 1011.34 1012.28 1013.23 1014.16 1015.04 1015.87 1016.67 1017.43 1018.18 1018.92 1019.64 1020.33 1020.99 1021.58 1022.10 1022.55 1022.92 1023.24 1023.51 1023.75 1023.99 1024.22 1024.45 1024.66 1024.85 1024.99 1025.06 1025.05 1024.94 1024.74 1024.44 1024.07 1023.63 1023.15 1022.63 1022.09 1021.53 1020.95 1020.34 1019.68 1018.96 1018.16
1009.98 1010.93 1011.93 1012.93 1013.90 1014.80 1015.65 1016.44 1017.20 1017.93 1018.64 1019.32 1019.97 1020.58 1021.13 1021.62 1022.05 1022.42 1022.73 1023.01 1023.27 1023.52 1023.76 1023.99 1024.19 1024.36 1024.48 1024.52 1024.47 1024.34 1024.12 1023.81 1023.45 1023.03 1022.58 1022.11 1021.61 1021.09 1020.54 1019.95 1019.28 1018.54 1017.69
1009.63 1010.62 1011.65 1012.66 1013.64 1014.55 1015.39 1016.18 1016.92 1017.62 1018.29 1018.94 1019.55 1020.12 1020.63 1021.09 1021.50 1021.86 1022.18 1022.48 1022.75 1023.01 1023.27 1023.50 1023.71 1023.86 1023.96 1023.98 1023.91 1023.76 1023.53 1023.24 1022.89 1022.51 1022.11 1021.69 1021.26 1020.79 1020.28 1019.71 1019.05 1018.27 1017.37
1009.36 1010.36 1011.38 1012.38 1013.33 1014.23 1015.05 1015.82 1016.54 1017.23 1017.88 1018.49 1019.07 1019.60 1020.09 1020.53 1020.92 1021.27 1021.60 1021.90 1022.19 1022.48 1022.75 1022.99 1023.20 1023.36 1023.44 1023.45 1023.37 1023.22 1023.00 1022.72 1022.41 1022.08 1021.74 1021.39 1021.02 1020.61 1020.15 1019.60 1018.94 1018.14 1017.18
1009.16 1010.12 1011.10 1012.06 1012.97 1013.83 1014.63 1015.38 1016.08 1016.75 1017.39 1017.99 1018.54 1019.06 1019.52 1019.94 1020.32 1020.66 1020.98 1021.29 1021.60 1021.90 1022.19 1022.44 1022.66 1022.82 1022.91 1022.92 1022.85 1022.70 1022.50 1022.26 1022.00 1021.72 1021.45 1021.16 1020.85 1020.50 1020.08 1019.55 1018.88 1018.06 1017.06
1009.00 1009.90 1010.81 1011.71 1012.56 1013.37 1014.14 1014.87 1015.57 1016.23 1016.86 1017.45 1018.00 1018.50 1018.95 1019.35 1019.71 1020.04 1020.36 1020.67 1020.98 1021.29 1021.58 1021.86 1022.09 1022.26 1022.36 1022.38 1022.33 1022.21 1022.04 1021.84 1021.63 1021.40 1021.18 1020.95 1020.69 1020.38 1019.98 1019.46 1018.79 1017.95 1016.91
1008.89 1009.71 1010.54 1011.35 1012.14 1012.91 1013.64 1014.35 1015.04 1015.70 1016.33 1016.92 1017.46 1017.95 1018.38 1018.76 1019.10 1019.42 1019.72 1020.02 1020.33 1020.64 1020.95 1021.23 1021.48 1021.67 1021.79 1021.84 1021.82 1021.73 1021.61 1021.45 1021.28 1021.10 1020.92 1020.72 1020.49 1020.19 1019.80 1019.27 1018.59 1017.73 1016.67
1008.85 1009.57 1010.31 1011.05 1011.77 1012.48 1013.18 1013.87 1014.55 1015.20 1015.83 1016.41 1016.94 1017.41 1017.82 1018.18 1018.50 1018.79 1019.07 1019.36 1019.66 1019.97 1020.28 1020.58 1020.84 1021.06 1021.22 1021.30 1021.32 1021.28 1021.20 1021.08 1020.95 1020.80 1020.64 1020.45 1020.22 1019.91 1019.50 1018.95 1018.25 1017.36 1016.28
1008.89 1009.52 1010.17 1010.83 1011.48 1012.15 1012.81 1013.47 1014.12 1014.76 1015.37 1015.93 1016.44 1016.88 1017.26 1017.58 1017.87 1018.14 1018.40 1018.68 1018.97 1019.28 1019.60 1019.92 1020.21 1020.46 1020.66 1020.79 1020.86 1020.88 1020.84 1020.76 1020.66 1020.53 1020.37 1020.17 1019.90 1019.56 1019.10 1018.52 1017.77 1016.86 1015.76
1009.04 1009.58 1010.14 1010.72 1011.31 1011.91 1012.53 1013.15 1013.77 1014.37 1014.94 1015.46 1015.92 1016.32 1016.67 1016.96 1017.21 1017.46 1017.70 1017.97 1018.26 1018.58 1018.91 1019.26 1019.58 1019.88 1020.13 1020.33 1020.46 1020.53 1020.54 1020.51 1020.43 1020.31 1020.13 1019.90 1019.59 1019.19 1018.67 1018.02 1017.23 1016.28 1015.17
1009.28 1009.73 1010.21 1010.71 1011.23 1011.77 1012.33 1012.90 1013.46 1014.00 1014.51 1014.97 1015.38 1015.73 1016.02 1016.27 1016.50 1016.72 1016.96 1017.23 1017.53 1017.86 1018.23 1018.60 1018.98 1019.33 1019.64 1019.90 1020.10 1020.24 1020.31 1020.32 1020.27 1020.15 1019.96 1019.69 1019.32 1018.85 1018.26 1017.54 1016.69 1015.70 1014.56
1009.59 1009.95 1010.35 1010.77 1011.23 1011.70 1012.19 1012.68 1013.16 1013.63 1014.06 1014.45 1014.78 1015.07 1015.31 1015.53 1015.73 1015.94 1016.18 1016.45 1016.77 1017.14 1017.54 1017.96 1018.38 1018.79 1019.17 1019.50 1019.77 1019.98 1020.12 1020.18 1020.16 1020.06 1019.86 1019.55 1019.14 1018.60 1017.94 1017.15 1016.24 1015.19 1014.02
1009.90 1010.18 1010.51 1010.86 1011.24 1011.64 1012.05 1012.46 1012.86 1013.23 1013.57 1013.87 1014.13 1014.35 1014.54 1014.72 1014.91 1015.12 1015.36 1015.66 1016.00 1016.40 1016.84 1017.30 1017.77 1018.24 1018.67 1019.08 1019.42 1019.70 1019.91 1020.03 1020.06 1019.98 1019.79 1019.47 1019.03 1018.44 1017.73 1016.88 1015.90 1014.81 1013.60
1010.17 1010.38 1010.63 1010.92 1011.24 1011.56 1011.89 1012.21 1012.52 1012.79 1013.04 1013.25 1013.43 1013.59 1013.74 1013.89 1014.07 1014.28 1014.54 1014.86 1015.23 1015.65 1016.12 1016.61 1017.12 1017.63 1018.12 1018.58 1018.99 1019.34 1019.62 1019.81 1019.89 1019.86 1019.70 1019.40 1018.95 1018.34 1017.60 1016.71 1015.69 1014.56 1013.31
1010.35 1010.50 1010.70 1010.93 1011.19 1011.44 1011.70 1011.94 1012.15 1012.34 1012.49 1012.62 1012.73 1012.84 1012.95 1013.08 1013.25 1013.47 1013.74 1014.07 1014.46 1014.90 1015.38 1015.89 1016.41 1016.95 1017.47 1017.97 1018.43 1018.85 1019.19 1019.45 1019.60 1019.64 1019.53 1019.26 1018.84 1018.24 1017.49 1016.60 1015.56 1014.40 1013.13
1010.44 1010.55 1010.70 1010.89 1011.09 1011.30 1011.49 1011.65 1011.79 1011.89 1011.97 1012.02 1012.08 1012.13 1012.21 1012.32 1012.49 1012.70 1012.98 1013.31 1013.70 1014.14 1014.62 1015.12 1015.64 1016.18 1016.71 1017.24 1017.73 1018.19 1018.60 1018.92 1019.15 1019.25 1019.21 1019.01 1018.63 1018.08 1017.36 1016.48 1015.46 1014.30 1013.04
1010.44 1010.53 1010.66 1010.81 1010.98 1011.14 1011.28 1011.38 1011.45 1011.49 1011.50 1011.49 1011.49 1011.51 1011.56 1011.65 1011.80 1012.01 1012.28 1012.61 1012.98 1013.40 1013.85 1014.33 1014.83 1015.34 1015.87 1016.39 1016.91 1017.40 1017.85 1018.24 1018.53 1018.71 1018.74 1018.61 1018.31 1017.82 1017.15 1016.32 1015.34 1014.22 1012.98
1010.40 1010.48 1010.59 1010.73 1010.87 1011.00 1011.09 1011.15 1011.16 1011.14 1011.10 1011.04 1011.00 1010.97 1011.00 1011.07 1011.20 1011.40 1011.65 1011.95 1012.30 1012.68 1013.09 1013.53 1013.99 1014.47 1014.97 1015.49 1016.01 1016.52 1017.00 1017.43 1017.79 1018.03 1018.14 1018.08 1017.85 1017.44 1016.85 1016.08 1015.16 1014.11 1012.94
1010.36 1010.43 1010.54 1010.67 1010.79 1010.89 1010.95 1010.96 1010.93 1010.86 1010.76 1010.67 1010.58 1010.53 1010.52 1010.57 1010.68 1010.85 1011.08 1011.35 1011.66 1012.01 1012.38 1012.77 1013.19 1013.63 1014.10 1014.59 1015.11 1015.62 1016.13 1016.59 1016.99 1017.28 1017.45 1017.46 1017.30 1016.97 1016.45 1015.77 1014.94 1013.97 1012.89
1010.32 1010.40 1010.51 1010.63 1010.74 1010.81 1010.83 1010.81 1010.73 1010.62 1010.48 1010.34 1010.22 1010.13 1010.10 1010.13 1010.21 1010.36 1010.56 1010.80 1011.08 1011.39 1011.72 1012.07 1012.45 1012.87 1013.31 1013.79 1014.29 1014.80 1015.31 1015.80 1016.22 1016.55 1016.76 1016.82 1016.72 1016.45 1016.01 1015.42 1014.68 1013.82 1012.85
1010.30 1010.39 1010.50 1010.60 1010.69 1010.73 1010.72 1010.65 1010.54 1010.38 1010.21 1010.03 1009.88 1009.77 1009.71 1009.71 1009.78 1009.90 1010.08 1010.30 1010.55 1010.84 1011.14 1011.47 1011.83 1012.22 1012.65 1013.11 1013.61 1014.12 1014.63 1015.11 1015.54 1015.89 1016.12 1016.22 1016.16 1015.94 1015.57 1015.06 1014.41 1013.66 1012.83
1010.28 1010.36 1010.46 1010.55 1010.61 1010.62 1010.57 1010.47 1010.32 1010.13 1009.92 1009.71 1009.54 1009.40 1009.32 1009.31 1009.36 1009.48 1009.64 1009.85 1010.09 1010.36 1010.66 1010.98 1011.34 1011.72 1012.14 1012.60 1013.09 1013.59 1014.09 1014.57 1015.00 1015.34 1015.58 1015.69 1015.66 1015.48 1015.17 1014.72 1014.17 1013.53 1012.81
1010.20 1010.28 1010.37 1010.44 1010.47 1010.45 1010.37 1010.23 1010.05 1009.83 1009.60 1009.38 1009.18 1009.04 1008.96 1008.94 1008.98 1009.09 1009.26 1009.46 1009.71 1009.98 1010.28 1010.61 1010.96 1011.35 1011.77 1012.23 1012.71 1013.20 1013.69 1014.16 1014.57 1014.90 1015.13 1015.25 1015.23 1015.08 1014.81 1014.43 1013.96 1013.42 1012.83
Thickness
5505 5506 5508 5509 5511 5513 5514 5515 5516 5517 5517 5518 5518 5517 5516 5517 5516 5515 5515 5514 5513 5512 5512 5511 5511 5510 5509 5509 5509 5509 5508 5508 5510 5511 5508 5507 5505 5504 5503 5502 5502 5501 5501
5495 5496 5497 5499 5500 5501 5503 5504 5506 5507 5507 5508 5507 5507 5506 5506 5505 5505 5504 5504 5503 5502 5502 5502 5502 5501 5500 5500 5499 5499 5499 5498 5498 5499 5498 5496 5494 5494 5493 5492 5492 5491 5490
5486 5487 5488 5489 5490 5491 5492 5493 5495 5496 5496 5497 5497 5496 5496 5495 5495 5494 5493 5493 5492 5492 5491 5491 5491 5491 5490 5490 5489 5489 5489 5489 5489 5489 5489 5486 5484 5483 5482 5481 5481 5480 5480
5478 5479 5479 5480 5481 5482 5482 5483 5484 5485 5485 5485 5485 5485 5485 5484 5485 5484 5483 5482 5482 5481 5481 5481 5481 5481 5481 5481 5480 5480 5479 5479 5478 5478 5478 5476 5474 5473 5471 5471 5470 5470 5469
5469 5469 5470 5471 5471 5472 5472 5473 5473 5473 5473 5473 5474 5473 5473 5473 5474 5474 5473 5472 5472 5471 5471 5471 5471 5472 5472 5471 5471 5471 5470 5469 5468 5468 5468 5466 5465 5462 5462 5461 5460 5459 5459
5460 5460 5461 5462 5462 5462 5463 5463 5463 5463 5462 5462 5462 5462 5463 5463 5463 5464 5463 5462 5462 5462 5462 5462 5461 5461 5461 5462 5461 5462 5461 5461 5460 5459 5459 5458 5458 5455 5452 5450 5448 5447 5448
5451 5452 5452 5453 5453 5453 5453 5453 5453 5452 5451 5451 5451 5451 5451 5452 5452 5454 5454 5453 5453 5452 5452 5452 5452 5452 5451 5451 5451 5451 5451 5451 5451 5450 5450 5450 5448 5447 5443 5441 5438 5437 5438
5443 5443 5444 5444 5444 5444 5443 5442 5442 5441 5440 5440 5440 5440 5440 5441 5442 5443 5443 5443 5443 5443 5443 5443 5442 5443 5442 5442 5442 5441 5442 5442 5441 5441 5441 5442 5439 5437 5435 5433 5430 5427 5425
5437 5437 5436 5436 5435 5434 5434 5433 5432 5430 5430 5429 5429 5429 5430 5430 5432 5433 5434 5433 5433 5434 5435 5435 5434 5434 5435 5434 5433 5432 5433 5432 5431 5431 5431 5430 5429 5427 5424 5421 5418 5415 5415
5430 5431 5430 5428 5427 5427 5426 5424 5422 5420 5420 5419 5419 5419 5420 5420 5422 5424 5425 5425 5425 5426 5426 5426 5425 5426 5426 5425 5423 5423 5423 5422 5420 5420 5419 5419 5417 5415 5414 5411 5409 5406 5404
5422 5422 5422 5421 5420 5419 5417 5415 5413 5411 5410 5409 5409 5410 5410 5411 5413 5415 5417 5417 5417 5418 5418 5417 5416 5416 5416 5415 5415 5414 5414 5412 5410 5409 5408 5407 5406 5405 5403 5401 5399 5398 5396
5413 5413 5413 5412 5411 5411 5408 5406 5404 5402 5401 5400 5400 5401 5401 5403 5405 5407 5409 5410 5410 5409 5409 5408 5407 5406 5406 5405 5404 5404 5403 5401 5399 5397 5397 5396 5395 5394 5392 5390 5389 5387 5387
5403 5404 5404 5404 5403 5402 5400 5398 5396 5394 5393 5393 5393 5394 5395 5396 5396 5398 5400 5401 5401 5401 5401 5400 5398 5397 5396 5394 5393 5392 5391 5389 5388 5387 5387 5386 5384 5382 5380 5379 5378 5377 5375
5394 5394 5395 5394 5393 5392 5391 5390 5388 5387 5386 5386 5387 5388 5388 5388 5388 5389 5390 5391 5391 5391 5390 5389 5387 5386 5384 5383 5381 5379 5378 5378 5378 5378 5377 5375 5373 5371 5369 5368 5367 5366 5365
5385 5386 5386 5386 5384 5383 5382 5381 5381 5381 5380 5380 5381 5381 5380 5381 5382 5383 5383 5382 5382 5381 5378 5376 5374 5373 5372 5370 5368 5368 5367 5367 5367 5366 5365 5364 5362 5361 5359 5357 5356 5355 5355
5378 5378 5377 5377 5376 5375 5374 5373 5372 5372 5374 5374 5374 5373 5373 5374 5375 5375 5374 5374 5373 5371 5368 5366 5364 5363 5361 5359 5358 5358 5357 5356 5356 5356 5355 5353 5353 5351 5349 5347 5346 5346 5345
5371 5370 5370 5369 5368 5367 5366 5365 5364 5365 5365 5365 5365 5366 5366 5366 5366 5366 5365 5364 5362 5361 5358 5356 5355 5353 5351 5350 5349 5348 5347 5347 5346 5346 5345 5344 5343 5341 5339 5338 5337 5336 5336
5364 5364 5363 5362 5360 5359 5358 5357 5356 5356 5356 5355 5356 5356 5356 5357 5357 5356 5355 5353 5351 5349 5347 5345 5344 5343 5342 5341 5340 5338 5337 5337 5336 5336 5335 5334 5332 5331 5330 5329 5328 5327 5327
5357 5356 5356 5354 5353 5351 5350 5349 5348 5347 5347 5347 5346 5346 5347 5347 5346 5345 5344 5341 5340 5338 5336 5335 5335 5334 5332 5331 5331 5330 5329 5328 5328 5326 5325 5324 5323 5322 5321 5319 5319 5319 5318
5349 5350 5349 5347 5345 5343 5342 5341 5340 5339 5339 5338 5337 5337 5337 5336 5335 5334 5333 5331 5330 5329 5328 5327 5326 5325 5324 5323 5323 5322 5321 5320 5319 5318 5316 5316 5314 5313 5312 5311 5310 5310 5310
5342 5342 5342 5340 5338 5336 5335 5334 5332 5331 5330 5330 5329 5329 5330 5328 5327 5326 5324 5323 5322 5321 5321 5320 5319 5318 5317 5316 5315 5314 5312 5311 5310 5309 5308 5307 5305 5304 5304 5303 5302 5302 5301
5335 5334 5333 5332 5331 5329 5328 5327 5325 5324 5324 5323 5322 5321 5322 5320 5319 5318 5317 5316 5315 5315 5314 5313 5313 5312 5311 5310 5309 5308 5306 5305 5303 5302 5301 5299 5297 5296 5296 5295 5294 5294 5293
5327 5327 5326 5325 5324 5324 5322 5320 5319 5318 5317 5316 5315 5314 5313 5312 5312 5311 5310 5310 5309 5308 5308 5307 5306 5305 5305 5304 5303 5302 5301 5300 5298 5297 5295 5292 5290 5289 5288 5288 5287 5287 5286
5320 5319 5318 5317 5316 5315 5314 5313 5312 5311 5310 5309 5308 5307 5306 5306 5305 5305 5304 5304 5303 5302 5302 5301 5300 5300 5299 5298 5297 5296 5295 5294 5292 5291 5289 5287 5285 5283 5282 5281 5281 5281 5280
5312 5311 5310 5308 5308 5307 5306 5305 5304 5304 5303 5303 5302 5301 5300 5299 5299 5299 5298 5298 5297 5297 5296 5296 5295 5295 5294 5293 5292 5291 5290 5288 5287 5285 5283 5282 5280 5278 5277 5277 5276 5275 5275
5305 5303 5302 5301 5300 5299 5298 5298 5297 5296 5296 5295 5295 5294 5294 5293 5293 5292 5292 5291 5291 5291 5291 5290 5290 5289 5288 5287 5286 5285 5284 5283 5282 5280 5279 5277 5275 5274 5273 5272 5271 5271 5270